Terminal Aerodrome Forecast
Issued by NWS

Home | Current Version | Previous Version | Text Only | Print | Product List | Glossary On
Versions: 1 2 3 4 5 6 7 8 9 10 11 12 13 14 15 16 17 18 19 20 21 22 23 24 25 26 27 28 29 30 31 32 33 34 35 36 37 38 39 40 41 42 43 44 45 46 47 48 49 50
000
FTUS43 KMKX 300242 AAA
TAFENW
TAF AMD
KENW 300242Z 3003/3024 04015G25KT 6SM -RA OVC050
     FM300330 05016G26KT 5SM -RA OVC020
     FM300600 06015G25KT 6SM -RA OVC008
     FM300800 06015G23KT P6SM VCSH OVC008
     FM301200 05013G22KT P6SM -SHRA OVC005=

USA.gov is the U.S. government's official web portal to all federal, state and local government web resources and services.